MZN7ML YMML-YSSY

Flight info

Callsign MZN7ML
Flight time 1h 2m
Altitude 37000
Route ML H129 DOSEL Y59 RIVET
Aircraft B738/M-SDE2E3FGHIRWXY/LB1

Departure

Time 2026-05-04 06:13
Airport Melbourne Airport (YMML)

Arrival

Time 2026-05-04 07:15
Airport Sydney Kingsford Smith International Airport (YSSY)
Time Latitude Longitude Altitude Speed Heading
2026-05-04 05:36 -37.67610 144.84843 348 ft 0 kts 351°
2026-05-04 06:06 -37.67633 144.84846 357 ft 4 kts
2026-05-04 06:06 -37.67659 144.84844 357 ft 4 kts 352°
2026-05-04 06:06 -37.67669 144.84836 349 ft 2 kts 263°
2026-05-04 06:06 -37.67669 144.84838 349 ft 1 kts 262°
2026-05-04 06:11 -37.67851 144.84299 350 ft 13 kts 261°
2026-05-04 06:11 -37.67863 144.84190 351 ft 12 kts 262°
2026-05-04 06:13 -37.63589 144.83379 2110 ft 167 kts 353°
2026-05-04 06:14 -37.56369 144.83918 5315 ft 232 kts 18°
2026-05-04 06:14 -37.54915 144.84815 5895 ft 233 kts 18°
2026-05-04 06:15 -37.53433 144.85723 6419 ft 239 kts 18°
2026-05-04 06:15 -37.51875 144.86672 6658 ft 258 kts 18°
2026-05-04 06:15 -37.50172 144.87703 6823 ft 284 kts 19°
2026-05-04 06:15 -37.48333 144.88816 7031 ft 308 kts 20°
2026-05-04 06:16 -37.46326 144.90031 7216 ft 331 kts 20°
2026-05-04 06:16 -37.44211 144.91408 7418 ft 355 kts 28°
2026-05-04 06:16 -37.42424 144.93675 7882 ft 377 kts 49°
2026-05-04 06:16 -37.40910 144.96403 8536 ft 382 kts 50°
2026-05-04 06:17 -37.39379 144.99163 9160 ft 386 kts 50°
2026-05-04 06:17 -37.37825 145.01947 9747 ft 391 kts 50°
2026-05-04 06:17 -37.36250 145.04753 10321 ft 395 kts 50°
2026-05-04 06:17 -37.34652 145.07587 10925 ft 399 kts 50°
2026-05-04 06:18 -37.33035 145.10447 11520 ft 403 kts 50°
2026-05-04 06:18 -37.31402 145.13332 12116 ft 406 kts 50°
2026-05-04 06:18 -37.29775 145.16198 12710 ft 410 kts 50°
2026-05-04 06:20 -37.17782 145.37252 16856 ft 434 kts 50°
2026-05-04 06:20 -37.16008 145.40353 17422 ft 438 kts 50°
2026-05-04 06:21 -37.08803 145.52903 19472 ft 449 kts 49°
2026-05-04 06:21 -37.06978 145.56079 20014 ft 449 kts 48°
2026-05-04 06:22 -37.05146 145.59265 20489 ft 452 kts 48°
2026-05-04 06:22 -37.03302 145.62467 20916 ft 455 kts 48°
2026-05-04 06:25 -36.78595 146.05149 26186 ft 465 kts 45°
2026-05-04 06:25 -36.76709 146.08365 26530 ft 466 kts 45°
2026-05-04 06:26 -36.74785 146.11644 26872 ft 468 kts 45°
2026-05-04 06:26 -36.72858 146.14923 27144 ft 471 kts 45°
2026-05-04 06:26 -36.70919 146.18228 27564 ft 470 kts 45°
2026-05-04 06:26 -36.68993 146.21516 28075 ft 468 kts 45°
2026-05-04 06:27 -36.61329 146.34574 29937 ft 462 kts 45°
2026-05-04 06:28 -36.59434 146.37798 30326 ft 462 kts 45°
2026-05-04 06:28 -36.57551 146.40989 30530 ft 465 kts 45°
2026-05-04 06:28 -36.55629 146.44242 30782 ft 467 kts 45°
2026-05-04 06:28 -36.53707 146.47495 31153 ft 466 kts 45°
2026-05-04 06:29 -36.51792 146.50739 31540 ft 464 kts 45°
2026-05-04 06:29 -36.49879 146.53975 31875 ft 464 kts 44°
2026-05-04 06:29 -36.47966 146.57205 32108 ft 466 kts 44°
2026-05-04 06:29 -36.46039 146.60454 32357 ft 467 kts 44°
2026-05-04 06:30 -36.44760 146.62609 32572 ft 467 kts 44°
2026-05-04 06:30 -36.42836 146.65854 32945 ft 465 kts 44°
2026-05-04 06:30 -36.40919 146.69083 33276 ft 465 kts 44°
2026-05-04 06:30 -36.38369 146.73370 33674 ft 465 kts 44°
2026-05-04 06:31 -36.37067 146.75557 33885 ft 465 kts 44°
2026-05-04 06:31 -36.35142 146.78788 34145 ft 465 kts 44°
2026-05-04 06:31 -36.33216 146.82016 34324 ft 467 kts 44°
2026-05-04 06:31 -36.31299 146.85224 34521 ft 468 kts 44°
2026-05-04 06:32 -36.29368 146.88459 34871 ft 465 kts 44°
2026-05-04 06:33 -36.15969 147.10804 36701 ft 460 kts 44°
2026-05-04 06:34 -36.14056 147.13980 36928 ft 459 kts 44°
2026-05-04 06:34 -36.12142 147.17156 36988 ft 463 kts 44°
2026-05-04 06:34 -36.08253 147.23596 37011 ft 471 kts 44°
2026-05-04 06:36 -35.92195 147.50115 37015 ft 487 kts 44°
2026-05-04 06:37 -35.88132 147.56785 37020 ft 486 kts 44°
2026-05-04 06:37 -35.84072 147.63454 37025 ft 485 kts 44°
2026-05-04 06:38 -35.80009 147.70096 36985 ft 484 kts 43°
2026-05-04 06:40 -35.63789 147.96497 37030 ft 484 kts 43°
2026-05-04 06:40 -35.59719 148.03093 37040 ft 485 kts 43°
2026-05-04 06:41 -35.55631 148.09702 37032 ft 486 kts 43°
2026-05-04 06:41 -35.51534 148.16316 37033 ft 486 kts 43°
2026-05-04 06:42 -35.47437 148.22913 37020 ft 486 kts 43°
2026-05-04 06:44 -35.30963 148.49296 37004 ft 489 kts 43°
2026-05-04 06:44 -35.26823 148.55895 37034 ft 489 kts 43°
2026-05-04 06:45 -35.22670 148.62500 37026 ft 489 kts 43°
2026-05-04 06:45 -35.18518 148.69090 37023 ft 488 kts 43°
2026-05-04 06:46 -35.14366 148.75666 37011 ft 489 kts 43°
2026-05-04 06:46 -35.10233 148.82203 37016 ft 488 kts 43°
2026-05-04 06:48 -34.93642 149.08320 37018 ft 487 kts 43°
2026-05-04 06:50 -34.77044 149.34271 34657 ft 474 kts 43°
2026-05-04 06:51 -34.75030 149.37407 34034 ft 469 kts 43°
2026-05-04 06:51 -34.73143 149.40672 33350 ft 476 kts 51°
2026-05-04 06:51 -34.71543 149.44205 32712 ft 478 kts 53°
2026-05-04 06:51 -34.70014 149.47802 32061 ft 479 kts 54°
2026-05-04 06:52 -34.68498 149.51417 31401 ft 478 kts 54°
2026-05-04 06:52 -34.66999 149.54964 30734 ft 477 kts 54°
2026-05-04 06:52 -34.65469 149.58535 30030 ft 477 kts 54°
2026-05-04 06:52 -34.63922 149.62101 29178 ft 476 kts 54°
2026-05-04 06:53 -34.62373 149.65646 28387 ft 474 kts 54°
2026-05-04 06:53 -34.60825 149.69173 27575 ft 472 kts 54°
2026-05-04 06:53 -34.59284 149.72678 26768 ft 471 kts 54°
2026-05-04 06:53 -34.57740 149.76186 25926 ft 471 kts 54°
2026-05-04 06:54 -34.56202 149.79680 25404 ft 468 kts 54°
2026-05-04 06:54 -34.54667 149.83167 25118 ft 470 kts 54°
2026-05-04 06:54 -34.53129 149.86658 24387 ft 468 kts 54°
2026-05-04 06:54 -34.51586 149.90154 23384 ft 473 kts 55°
2026-05-04 06:55 -34.50027 149.93683 22444 ft 473 kts 55°
2026-05-04 06:55 -34.48501 149.97140 21775 ft 466 kts 56°
2026-05-04 06:55 -34.46980 150.00586 21111 ft 460 kts 56°
2026-05-04 06:55 -34.45478 150.03981 20481 ft 453 kts 56°
2026-05-04 06:56 -34.43997 150.07328 19853 ft 447 kts 56°
2026-05-04 06:57 -34.34093 150.29596 15517 ft 411 kts 56°
2026-05-04 06:58 -34.32745 150.32615 14953 ft 406 kts 56°
2026-05-04 06:58 -34.31423 150.35568 14392 ft 402 kts 56°
2026-05-04 06:58 -34.30083 150.38566 13793 ft 399 kts 56°
2026-05-04 06:58 -34.28784 150.41472 13180 ft 396 kts 56°
2026-05-04 06:59 -34.27464 150.44423 12599 ft 391 kts 56°
2026-05-04 06:59 -34.26194 150.47261 12052 ft 386 kts 56°
2026-05-04 06:59 -34.24921 150.50105 11484 ft 383 kts 56°
2026-05-04 06:59 -34.23673 150.52894 11297 ft 369 kts 56°
2026-05-04 07:01 -34.15958 150.70082 10283 ft 297 kts 54°
2026-05-04 07:01 -34.14988 150.72236 10147 ft 287 kts 54°
2026-05-04 07:02 -34.14047 150.74322 10028 ft 279 kts 54°
2026-05-04 07:02 -34.13132 150.76353 9797 ft 272 kts 54°
2026-05-04 07:02 -34.12239 150.78331 9531 ft 265 kts 54°
2026-05-04 07:02 -34.11363 150.80269 9275 ft 262 kts 54°
2026-05-04 07:03 -34.10481 150.82215 9038 ft 271 kts 54°
2026-05-04 07:03 -34.09558 150.84250 8811 ft 281 kts 55°
2026-05-04 07:03 -34.08612 150.86347 8572 ft 286 kts 55°
2026-05-04 07:03 -34.07664 150.88460 8322 ft 286 kts 55°
2026-05-04 07:04 -34.06719 150.90564 8067 ft 283 kts 55°
2026-05-04 07:04 -34.05782 150.92649 7835 ft 280 kts 55°
2026-05-04 07:04 -34.04854 150.94709 7603 ft 278 kts 56°
2026-05-04 07:04 -34.03935 150.96749 7377 ft 275 kts 55°
2026-05-04 07:05 -34.03187 150.98852 7124 ft 283 kts 74°
2026-05-04 07:05 -34.03315 151.01238 6858 ft 292 kts 108°
2026-05-04 07:05 -34.04410 151.03296 6603 ft 293 kts 133°
2026-05-04 07:05 -34.05823 151.05065 6283 ft 292 kts 134°
2026-05-04 07:06 -34.08999 151.08027 5364 ft 287 kts 167°
2026-05-04 07:06 -34.10897 151.08531 5089 ft 279 kts 172°
2026-05-04 07:06 -34.12786 151.08994 4704 ft 276 kts 172°
2026-05-04 07:07 -34.14677 151.09468 4193 ft 278 kts 171°
2026-05-04 07:08 -34.22665 151.18208 2982 ft 234 kts 65°
2026-05-04 07:09 -34.21831 151.19806 2976 ft 220 kts 33°
2026-05-04 07:09 -34.20568 151.20794 2994 ft 216 kts 24°
2026-05-04 07:09 -34.19242 151.21679 2979 ft 218 kts 23°
2026-05-04 07:09 -34.17917 151.22541 2991 ft 220 kts 22°
2026-05-04 07:10 -34.16544 151.23355 2978 ft 218 kts 11°
2026-05-04 07:10 -34.15096 151.23262 2989 ft 209 kts 335°
2026-05-04 07:12 -34.05939 151.20543 1896 ft 161 kts 349°
2026-05-04 07:12 -34.04894 151.20271 1704 ft 146 kts 349°
2026-05-04 07:12 -34.03929 151.20019 1511 ft 139 kts 350°
2026-05-04 07:12 -34.02994 151.19777 1329 ft 138 kts 350°
2026-05-04 07:13 -34.02031 151.19528 1172 ft 145 kts 351°
2026-05-04 07:13 -34.01068 151.19268 1066 ft 140 kts 352°
2026-05-04 07:13 -34.00128 151.19020 835 ft 137 kts 351°
2026-05-04 07:14 -33.96017 151.17955 50 ft 158 kts 349°
2026-05-04 07:14 -33.95024 151.17699 38 ft 129 kts 350°
2026-05-04 07:15 -33.94246 151.17500 29 ft 93 kts 347°
2026-05-04 07:15 -33.93785 151.17380 15 ft 55 kts 347°
2026-05-04 07:15 -33.93587 151.17328 15 ft 13 kts 346°
2026-05-04 07:15 -33.93460 151.17277 14 ft 24 kts 320°
2026-05-04 07:16 -33.93438 151.17166 15 ft 1 kts 259°
2026-05-04 07:16 -33.93441 151.17144 16 ft 0 kts 258°
2026-05-04 07:18 -33.93443 151.17135 16 ft 4 kts 261°
2026-05-04 07:18 -33.93423 151.17089 20 ft 7 kts 325°
2026-05-04 07:18 -33.93384 151.17072 20 ft 11 kts 343°
2026-05-04 07:18 -33.93307 151.17025 20 ft 13 kts 317°
2026-05-04 07:19 -33.93240 151.16960 20 ft 13 kts 342°
2026-05-04 07:19 -33.93208 151.16950 20 ft 2 kts 346°
2026-05-04 07:19 -33.93191 151.16945 20 ft 3 kts 346°
2026-05-04 07:19 -33.93162 151.16925 21 ft 6 kts 306°
2026-05-04 07:20 -33.93160 151.16879 20 ft 6 kts 260°
2026-05-04 07:20 -33.93168 151.16834 20 ft 5 kts 256°
2026-05-04 07:20 -33.93175 151.16800 20 ft 2 kts 256°
2026-05-04 07:20 -33.93176 151.16793 20 ft 0 kts 257°